SCOUT B-1 R/B

Satellite information

Favourite Embed

Satellite Type and Status

ROCKET BODYIN ORBIT

Key statistics

Satellite SCOUT B-1 R/B at a glance.

Uptime

19797

Days in orbit

Revolutions

≈ 14.6

Per day

Orbit

LEO

Low Earth Orbit

Inclination

50.1

Latest

Satellite identification and parameters

Extended collection of information and parameters for SCOUT B-1 R/B.

Object identification

Identified? True

Debris? False

Object name: SCOUT B-1 R/B

International designator: 1971-071B

Object number (NORAD): 5438

Object ID (CCSDS): 5438

Country: UNITED STATES OF AMERICA (US)

Current information (Y/N): Y

RCS size: MEDIUM

Orbital parameters

Period: 98.43 minutes

Inclination: 50.1444 deg

SMA: 7061.724 km

Apoapsis: 753.133 km

Periapsis: 614.045 km

RAAN: 181.9228 deg

Eccentricy: 0.00984802

Argument of periapsis: 186.3155 deg

Mean anomaly: 173.6541 deg

Mean motion: 14.62974031 rev/day

Mean motion (dot): 0.00001174 rev/day2

B* drag term: 0.00025016555 1/REarth

Two-line elements (TLE)

Creation date: Oct. 27, 2025, 2:46 a.m.

Reference frame: TEME

Reference center: EARTH

Epoch: Oct. 26, 2025, 10:29 p.m. UTC

TLE line 0: 0 SCOUT B-1 R/B

TLE line 1: 1 05438U 71071B 25299.93712046 .00001174 00000-0 25017-3 0 9996

TLE line 2: 2 05438 50.1444 181.9228 0098480 186.3155 173.6541 14.62974031844829

Live tracking on map

Real-time ground track for satellite SCOUT B-1 R/B.

In-orbit conjunctions

A list of the most updated potential collisions computed for object SCOUT B-1 R/B.

Target Orbit TCA Probability of collision Miss distance Type
NOAA 16 DEB SSO 2025-06-14 08:15:54 0.0002328674 330.0 (m) DEBRIS
CZ-6A DEB LEO 2025-05-28 04:10:40 0.0001180078 700.0 (m) DEBRIS
GALEX LEO 2025-03-31 07:23:28 0.0003548769 583.0 (m) PAYLOAD
CZ-6A DEB LEO 2024-12-03 06:03:49 0.001526038 100.0 (m) DEBRIS
COSMOS 2251 DEB LEO 2024-06-29 01:36:24 0.0007054994 282.0 (m) DEBRIS

Associated space launch

Second French experimental data relay satellite for meteorological data.

SCOUT B-1 R/B was lifted into orbit during the mission ‘Scout B-1 | Eole’, on board a Scout B-1 space rocket.

The launch took place on Aug. 16, 1971, 6:39 p.m. from Launch Area 3A.

For more information about the launch, click the button.

Launch to space Scout B-1 | Eole
Scout B-1 | Eole

Agency: N/A

Status: Launch Successful

Launch date: Aug. 16, 1971, 6:39 p.m. UTC

Rocket: Scout B-1

Launch pad: Launch Area 3A

Location: Wallops Flight Facility, Virginia, USA

...

Latest news about this satellite

There are no fresh news available about this satellite. Check back as we update our databases every day.


Newsletter sign-up

Weekly statistics, charts and insights to help you stay on top of the space industry.